STARLINK-35327, 66439

Orbit data source: Space-Track

STARLINK-35327, 66439 is a payload satellite owned by SpaceX/Seattle (US) in LEO that was launched on Tue, 11 Nov 2025 UTC via an FALCON 9 launch vehicle from the Air Force Eastern Test Range (AFETR). Payload-class satellites include a variety of spacecraft equipped with specific instruments for various scientific and technological missions. These include communications satellites like Starlink; space stations such as the ISS; scientific satellites like the Hubble; Earth observation satellites from companies like Planet Labs, Umbra, and HawkEye 360; GPS; miniature CubeSats for education and research; and military/defense satellites.

Loading next visibility...
Identifier
66439, 2025-259T
Orbit
LEO
Country
Flag of USUS
Related business
Manufacturer
SpaceX/Seattle
Mission
Operational Commercial Communications
Bus & Motor
STARLINK V2MO, Unknown motor
Mass
575 kg wet, ~530 kg dry
Launch date (UTC)
2025-11-11 (7 months ago)
Launch vehicle
FALCON 9
Launch site
Air Force Eastern Test Range (AFETR)
Object type
Payload
Rocket body
Debris
Shape & HBR
Box + 2 Pan, 17.7 m
Radar Cross Section
36.964 m², Large (>1 m²)

Expand to show TLE details & history
Last TLE update: 15 hours ago

TLE from 15 hours ago
0 STARLINK-35327
1 66439U 25259T   26150.08144637  .00022710  00000-0  83196-3 0  9990
2 66439  42.9985 174.2929 0001168 261.9054  98.1665 15.27591777 31947
Epoch: 2026-05-30T01:57Z
TLE epoch observation values (Epoch: 2026-05-30T01:57:16.966Z)
Latitude
-0.00002°
Longitude
-102.63041°
Altitude
482.903 km
Speed
7.626 km/s
True Right ascension
11h 37m 10s
True Declination
0° 00' 00"
Sunlit
Object was in daylight at epoch
Visualization orbit readout
Latitude
Unknown
Longitude
Unknown
Altitude
Unknown
Speed
Unknown
Apparent Right ascension
Unknown
Apparent Declination
Unknown
Sunlit
N/A
Visualization observer readout
Local Sidereal Time
02:00:52
Azimuth
Unknown
Elevation
Unknown
Doppler factor
Unknown
Orbital elements
Apogee altitude
485.761 km
Perigee altitude
484.158 km
Semi-major axis
6,863.096 km
Eccentricity
0.00012
Inclination
42.9985°
RAAN
174.2929°
Arg. of periapsis
261.9054°
True anomaly
98.17975°
Mean anomaly
98.1665°
Eccentric anomaly
98.17312°
Mean motion
3.81736 °/min
Orbital period
94.31 mins
BSTAR
0.00083196
Loading maneuver chart data...
Computing Atmospheric mass density...
Loading historical data...
Loading historical data...
Loading historical data...
Loading historical data...
Loading historical data...
Loading historical data...
Loading historical data...

Documentation

Showing up to 5 results
|